Weather History for Jackson, KY

Change the Weather History Date:

Saturday, May 4, 2013

  Actual Average Record
Temperature  
Mean Temperature 62 °F 62 °F  
Max Temperature 71 °F 72 °F 85 °F (2001)
Min Temperature 52 °F 52 °F 34 °F (2004)
Degree Days  
Heating Degree Days 3 5  
Month to date heating degree days 3 20  
Since 1 July heating degree days 4265 4141  
Cooling Degree Days 0 2  
Month to date cooling degree days 5 8  
Year to date cooling degree days 45 54  
Growing Degree Days 12 (Base 50)    
Moisture  
Dew Point 40 °F    
Average Humidity 47    
Maximum Humidity 57    
Minimum Humidity 37    
Precipitation  
Precipitation 0.06 in 0.16 in 1.48 in (1988)
Month to date precipitation 0.06 0.62  
Year to date precipitation 16.03 15.93  
Snow  
Snow 0.00 in 0.00 in - ()
Month to date snowfall 0.0 0.0  
Since 1 July snowfall 20.0 23.5  
Snow Depth 0.00 in    
Sea Level Pressure  
Sea Level Pressure 29.97 in    
Wind  
Wind Speed 5 mph (SE)    
Max Wind Speed 15 mph    
Max Gust Speed 28 mph    
Visibility 10 miles    
Events Rain    
T = Trace of Precipitation, MM = Missing Value Source: NWS Daily Summary

Daily Weather History Graph

Daily Weather History Graph

Search for Another Location

Airport:

Trip Planner

Search our weather history database for the weather conditions in past years. The results will help you decide how hot, cold, wet, or windy it might be!

Date:

Astronomy

May. 04, 2013 Rise Set
Actual Time 6:34 AM EDT 8:26 PM EDT
Civil Twilight 6:05 AM EDT 8:54 PM EDT
Nautical Twilight 5:31 AM EDT 9:29 PM EDT
Astronomical Twilight 4:54 AM EDT 10:06 PM EDT
Moon 3:25 AM EDT (5/4) 3:28 PM EDT (5/4)
Length of Visible Light 14h 48m
Length of Day
13h 52m
Waning Crescent, 27% of the Moon is Illuminated
May 4
Waning Crescent
May 9
New
May 18
First Quarter
May 25
Full
May 31
Last Quarter

Hourly Weather History & Observations

Time (EDT) Temp. Dew Point Humidity Pressure Visibility Wind Dir Wind Speed Gust Speed Precip Events Conditions
12:53 AM 60.1 °F 42.1 °F 51% 30.01 in 10.0 mi Variable 4.6 mph - N/A   Clear
1:53 AM 59.0 °F 43.0 °F 55% 30.00 in 10.0 mi Variable 4.6 mph - N/A   Clear
2:53 AM 57.9 °F 42.1 °F 56% 29.99 in 10.0 mi Calm Calm - N/A   Clear
3:53 AM 57.0 °F 42.1 °F 57% 29.98 in 10.0 mi Calm Calm - N/A   Clear
4:53 AM 57.0 °F 39.9 °F 53% 29.97 in 10.0 mi Variable 3.5 mph - N/A   Clear
5:53 AM 55.9 °F 34.0 °F 44% 29.98 in 10.0 mi SE 6.9 mph - N/A   Clear
6:53 AM 55.0 °F 30.9 °F 40% 29.99 in 10.0 mi Variable 6.9 mph 23.0 mph N/A   Clear
7:53 AM 53.1 °F 34.0 °F 48% 30.00 in 10.0 mi Variable 4.6 mph - N/A   Clear
8:33 AM 53.6 °F 33.8 °F 47% 30.01 in 10.0 mi Variable 6.9 mph - N/A   Scattered Clouds
8:53 AM 55.0 °F 34.0 °F 45% 29.99 in 10.0 mi SE 10.4 mph 19.6 mph N/A   Partly Cloudy
9:53 AM 57.9 °F 37.9 °F 47% 29.99 in 10.0 mi SE 8.1 mph 17.3 mph N/A   Clear
10:53 AM 61.0 °F 41.0 °F 48% 29.98 in 10.0 mi Variable 5.8 mph - N/A   Clear
11:53 AM 64.9 °F 42.1 °F 43% 29.97 in 10.0 mi Variable 4.6 mph - N/A   Clear
12:53 PM 68.0 °F 42.1 °F 39% 29.96 in 10.0 mi Variable 5.8 mph - N/A   Clear
1:53 PM 69.1 °F 43.0 °F 39% 29.94 in 10.0 mi Variable 4.6 mph - N/A   Clear
2:53 PM 70.0 °F 44.1 °F 39% 29.93 in 10.0 mi SE 13.8 mph 24.2 mph N/A   Scattered Clouds
3:53 PM 66.9 °F 45.0 °F 45% 29.93 in 10.0 mi East 8.1 mph 17.3 mph N/A   Mostly Cloudy
4:53 PM 68.0 °F 45.0 °F 43% 29.92 in 10.0 mi Variable 4.6 mph - N/A   Mostly Cloudy
5:53 PM 64.0 °F 45.0 °F 50% 29.95 in 10.0 mi SE 9.2 mph 23.0 mph N/A   Mostly Cloudy
6:53 PM 63.0 °F 44.1 °F 50% 29.96 in 10.0 mi Variable 3.5 mph - N/A   Scattered Clouds
7:53 PM 62.1 °F 43.0 °F 50% 29.95 in 10.0 mi Variable 3.5 mph - N/A   Mostly Cloudy
8:53 PM 62.1 °F 39.9 °F 44% 29.96 in 10.0 mi Variable 4.6 mph - N/A   Overcast
9:53 PM 62.1 °F 39.0 °F 43% 29.98 in 10.0 mi Calm Calm - N/A   Overcast
10:53 PM 60.1 °F 39.9 °F 47% 29.99 in 10.0 mi Calm Calm - 0.00 in Rain Light Rain
11:53 PM 60.1 °F 37.9 °F 44% 29.96 in 10.0 mi Variable 3.5 mph - 0.00 in Rain Light Rain